Volver al catálogo

BEIDOU 3M21

ActivoNavegaciónMEO
NORAD 44793·PAYLOAD·🇨🇳 China

Lanzado Nov 23, 2019 desde Xichang Satellite Launch Center

Loading…

Próximos Pases (próximas 24 horas)

TLE

ActualizadoSource: Space-Track

Época: Sep 14, 2026, 05:13 UTC

1 44793U 19078A   26257.21795676 -.00000059  00000-0  00000-0 0  9992
2 44793  53.8521 296.6877 0004864  42.8502 317.2452  1.86227095 46308

Sigue BEIDOU 3M21 en tiempo real con AllMySat

Download on the App Store